Flag for Portugal Weather past 2 weeks in Lisbon, Portugal

Now
54 °F

Passing clouds.


Feels Like: 50 °F
Forecast: 53 / 59 °F
Wind: 13 mph from North

Location: Lisbon Portela Airport

Current Time: Feb 27, 2015 at 6:31:45 AM

Latest Report: Feb 27, 2015 at 6:00 AM


Visibility: N/A

Pressure: 30.33 "Hg

Humidity: 94%

Dew point: 52 °F

Location of LisbonLocation

Historic Weather in Lisbon — Graph

°F

Lisbon temperature yesterday

Maximum temperature yesterday: 57 °F (at 1:00 PM)
Minimum temperature yesterday: 52 °F (at 12:00 AM)
Average temperature yesterday: 54 °F

Past Weeks' High & Low Weather Summary

 TemperatureHumidityPressure
High63 °F (Feb 19, 3:00 PM)100% (Feb 12, 5:00 AM)30.60 "Hg (Feb 12, 5:00 AM)
Low41 °F (Feb 12, 6:00 AM)38% (Feb 17, 7:30 PM)29.92 "Hg (Feb 21, 4:00 AM)
Average53 °F77%30.27 "Hg
* Reported Feb 12 5:00 AM — Feb 27 5:00 AM, Lisbon, Weather by CustomWeather, © 2015

Note: Actual official high and low records may vary slightly from our data, if they occured in-between our weather recording intervals... More about our weather records

Advertising

Lisbon weather history for previous 24 hours

 ConditionsComfort  
Time TempWeatherWind HumidityBarometerVisibility
5:00 AM
Fri, Feb 27
54 °FPassing clouds.13 mph94%30.33 "HgN/A
4:00 AM54 °FPassing clouds.16 mph94%30.33 "HgN/A
3:30 AM54 °FPassing clouds.14 mph94%30.33 "HgN/A
3:00 AM55 °FPassing clouds.17 mph88%30.33 "HgN/A
2:30 AM54 °FPassing clouds.12 mph100%30.33 "Hg5 mi
2:00 AM54 °FPassing clouds.10 mph94%30.36 "HgN/A
1:30 AM55 °FPartly cloudy.13 mph88%30.36 "HgN/A
1:00 AM55 °FPassing clouds.14 mph88%30.36 "HgN/A
12:30 AM54 °FPassing clouds.15 mph94%30.36 "HgN/A
12:00 AM54 °FPassing clouds.15 mph88%30.36 "HgN/A
11:30 PM
Thu, Feb 26
54 °FPassing clouds.16 mph88%30.39 "HgN/A
11:00 PM54 °FPassing clouds.20 mph88%30.36 "HgN/A
10:30 PM54 °FPassing clouds.15 mph88%30.39 "HgN/A
10:00 PM54 °FPassing clouds.16 mph88%30.39 "HgN/A
9:30 PM54 °FPassing clouds.17 mph88%30.39 "HgN/A
9:00 PM54 °FPassing clouds.16 mph88%30.39 "HgN/A
8:30 PM54 °FPassing clouds.15 mph88%30.39 "HgN/A
8:00 PM54 °FPassing clouds.13 mph82%30.39 "HgN/A
7:30 PM54 °FPassing clouds.14 mph82%30.39 "HgN/A
7:00 PM54 °FPassing clouds.10 mph82%30.39 "HgN/A
6:30 PM54 °FPassing clouds.9 mph82%30.39 "HgN/A
6:00 PM54 °FPartly sunny.13 mph77%30.39 "HgN/A
5:30 PM54 °FPartly sunny.10 mph77%30.39 "HgN/A
5:00 PM55 °FPartly sunny.12 mph72%30.39 "HgN/A
4:30 PM55 °FPartly sunny.14 mph72%30.39 "HgN/A
4:00 PM57 °FPartly sunny.16 mph67%30.36 "HgN/A
3:30 PM57 °FPartly sunny.17 mph67%30.36 "HgN/A
3:00 PM55 °FPartly sunny.17 mph67%30.39 "HgN/A
2:30 PM55 °FBroken clouds.14 mph77%30.39 "HgN/A
2:00 PM57 °FPartly sunny.16 mph72%30.39 "HgN/A
1:30 PM57 °FPartly sunny.17 mph72%30.42 "HgN/A
1:00 PM57 °FPartly sunny.15 mph72%30.42 "HgN/A
12:30 PM55 °FPartly sunny.14 mph82%30.42 "HgN/A
12:00 PM55 °FPartly sunny.15 mph82%30.45 "HgN/A
11:30 AM54 °FPartly sunny.12 mph88%30.45 "HgN/A
11:00 AM54 °FPartly sunny.8 mph82%30.45 "HgN/A
10:30 AM55 °FPartly sunny.23 mph82%30.45 "HgN/A
10:00 AM55 °FPartly sunny.21 mph77%30.45 "HgN/A
9:30 AM54 °FPartly sunny.17 mph77%30.45 "HgN/A
9:00 AM54 °FPartly sunny.22 mph82%30.45 "HgN/A
8:30 AM54 °FPartly sunny.20 mph77%30.45 "HgN/A
8:00 AM52 °FPartly sunny.20 mph82%30.45 "HgN/A
7:30 AM52 °FPartly sunny.16 mph82%30.42 "HgN/A
7:00 AM52 °FPassing clouds.17 mph82%30.42 "HgN/A
6:00 AM52 °FPassing clouds.13 mph82%30.42 "HgN/A
Weather by CustomWeather, © 2015

See weather overviewHow to use our weather pages